Year,Month,Day,Hour,Minute,Value (Times are PST for temperature in C)
2018,07,09,00,00,18.30
2018,07,09,00,01,18.30
2018,07,09,00,02,18.30
2018,07,09,00,03,18.30
2018,07,09,00,04,18.20
2018,07,09,00,05,18.10
2018,07,09,00,06,18.00
2018,07,09,00,07,17.90
2018,07,09,00,08,17.80
2018,07,09,00,09,17.80
2018,07,09,00,10,17.70
2018,07,09,00,11,17.70
2018,07,09,00,12,17.60
2018,07,09,00,13,17.50
2018,07,09,00,14,17.50
2018,07,09,00,15,17.40
2018,07,09,00,16,17.40
2018,07,09,00,17,17.30
2018,07,09,00,18,17.30
2018,07,09,00,19,17.30
2018,07,09,00,20,17.20
2018,07,09,00,21,17.20
2018,07,09,00,22,17.10
2018,07,09,00,23,17.10
2018,07,09,00,24,17.00
2018,07,09,00,25,17.00
2018,07,09,00,26,16.90
2018,07,09,00,27,16.80
2018,07,09,00,28,16.80
2018,07,09,00,29,16.70
2018,07,09,00,30,16.70
2018,07,09,00,31,16.60
2018,07,09,00,32,16.60
2018,07,09,00,33,16.50
2018,07,09,00,34,16.40
2018,07,09,00,35,16.40
2018,07,09,00,36,16.30
2018,07,09,00,37,16.30
2018,07,09,00,38,16.20
2018,07,09,00,39,16.20
2018,07,09,00,40,16.10
2018,07,09,00,41,16.00
2018,07,09,00,42,16.00
2018,07,09,00,43,15.90
2018,07,09,00,44,15.90
2018,07,09,00,45,15.80
2018,07,09,00,46,15.80
2018,07,09,00,47,15.70
2018,07,09,00,48,15.60
2018,07,09,00,49,15.60
2018,07,09,00,50,15.50
2018,07,09,00,51,15.40
2018,07,09,00,52,15.40
2018,07,09,00,53,15.30
2018,07,09,00,54,15.30
2018,07,09,00,55,15.30
2018,07,09,00,56,15.20
2018,07,09,00,57,15.20
2018,07,09,00,58,15.20
2018,07,09,00,59,15.20
2018,07,09,01,00,15.20
2018,07,09,01,01,15.20
2018,07,09,01,02,15.20
2018,07,09,01,03,15.20
2018,07,09,01,04,15.10
2018,07,09,01,05,15.10
2018,07,09,01,06,15.10
2018,07,09,01,07,15.10
2018,07,09,01,08,15.10
2018,07,09,01,09,15.00
2018,07,09,01,10,15.00
2018,07,09,01,11,14.90
2018,07,09,01,12,14.90
2018,07,09,01,13,14.90
2018,07,09,01,14,14.80
2018,07,09,01,15,14.80
2018,07,09,01,16,14.70
2018,07,09,01,17,14.70
2018,07,09,01,18,14.60
2018,07,09,01,19,14.60
2018,07,09,01,20,14.60
2018,07,09,01,21,14.50
2018,07,09,01,22,14.50
2018,07,09,01,23,14.40
2018,07,09,01,24,14.40
2018,07,09,01,25,14.30
2018,07,09,01,26,14.30
2018,07,09,01,27,14.30
2018,07,09,01,28,14.20
2018,07,09,01,29,14.20
2018,07,09,01,30,14.10
2018,07,09,01,31,14.10
2018,07,09,01,32,14.00
2018,07,09,01,33,14.00
2018,07,09,01,34,14.00
2018,07,09,01,35,13.90
2018,07,09,01,36,13.90
2018,07,09,01,37,13.90
2018,07,09,01,38,13.90
2018,07,09,01,39,13.90
2018,07,09,01,40,13.90
2018,07,09,01,41,13.80
2018,07,09,01,42,13.80
2018,07,09,01,43,13.80
2018,07,09,01,44,13.80
2018,07,09,01,45,13.80
2018,07,09,01,46,13.80
2018,07,09,01,47,13.80
2018,07,09,01,48,13.80
2018,07,09,01,49,13.80
2018,07,09,01,50,13.80
2018,07,09,01,51,13.80
2018,07,09,01,52,13.80
2018,07,09,01,53,13.80
2018,07,09,01,54,13.80
2018,07,09,01,55,13.70
2018,07,09,01,56,13.70
2018,07,09,01,57,13.70
2018,07,09,01,58,13.70
2018,07,09,01,59,13.70
2018,07,09,02,00,13.70
2018,07,09,02,01,13.60
2018,07,09,02,02,13.60
2018,07,09,02,03,13.60
2018,07,09,02,04,13.60
2018,07,09,02,05,13.60
2018,07,09,02,06,13.60
2018,07,09,02,07,13.60
2018,07,09,02,08,13.50
2018,07,09,02,09,13.50
2018,07,09,02,10,13.50
2018,07,09,02,11,13.50
2018,07,09,02,12,13.50
2018,07,09,02,13,13.60
2018,07,09,02,14,13.60
2018,07,09,02,15,13.60
2018,07,09,02,16,13.50
2018,07,09,02,17,13.50
2018,07,09,02,18,13.50
2018,07,09,02,19,13.50
2018,07,09,02,20,13.50
2018,07,09,02,21,13.50
2018,07,09,02,22,13.50
2018,07,09,02,23,13.50
2018,07,09,02,24,13.50
2018,07,09,02,25,13.50
2018,07,09,02,26,13.50
2018,07,09,02,27,13.50
2018,07,09,02,28,13.50
2018,07,09,02,29,13.50
2018,07,09,02,30,13.40
2018,07,09,02,31,13.40
2018,07,09,02,32,13.40
2018,07,09,02,33,13.50
2018,07,09,02,34,13.50
2018,07,09,02,35,13.50
2018,07,09,02,36,13.50
2018,07,09,02,37,13.50
2018,07,09,02,38,13.50
2018,07,09,02,39,13.50
2018,07,09,02,40,13.50
2018,07,09,02,41,13.50
2018,07,09,02,42,13.50
2018,07,09,02,43,13.50
2018,07,09,02,44,13.50
2018,07,09,02,45,13.50
2018,07,09,02,46,13.50
2018,07,09,02,47,13.50
2018,07,09,02,48,13.50
2018,07,09,02,49,13.40
2018,07,09,02,50,13.40
2018,07,09,02,51,13.40
2018,07,09,02,52,13.40
2018,07,09,02,53,13.40
2018,07,09,02,54,13.40
2018,07,09,02,55,13.40
2018,07,09,02,56,13.30
2018,07,09,02,57,13.30
2018,07,09,02,58,13.30
2018,07,09,02,59,13.30
2018,07,09,03,00,13.30
2018,07,09,03,01,13.30
2018,07,09,03,02,13.30
2018,07,09,03,03,13.30
2018,07,09,03,04,13.30
2018,07,09,03,05,13.30
2018,07,09,03,06,13.30
2018,07,09,03,07,13.30
2018,07,09,03,08,13.30
2018,07,09,03,09,13.20
2018,07,09,03,10,13.20
2018,07,09,03,11,13.20
2018,07,09,03,12,13.20
2018,07,09,03,13,13.20
2018,07,09,03,14,13.20
2018,07,09,03,15,13.20
2018,07,09,03,16,13.20
2018,07,09,03,17,13.20
2018,07,09,03,18,13.20
2018,07,09,03,19,13.20
2018,07,09,03,20,13.20
2018,07,09,03,21,13.20
2018,07,09,03,22,13.20
2018,07,09,03,23,13.20
2018,07,09,03,24,13.20
2018,07,09,03,25,13.20
2018,07,09,03,26,13.20
2018,07,09,03,27,13.20
2018,07,09,03,28,13.20
2018,07,09,03,29,13.20
2018,07,09,03,30,13.10
2018,07,09,03,31,13.10
2018,07,09,03,32,13.10
2018,07,09,03,33,13.20
2018,07,09,03,34,13.20
2018,07,09,03,35,13.20
2018,07,09,03,36,13.20
2018,07,09,03,37,13.30
2018,07,09,03,38,13.30
2018,07,09,03,39,13.30
2018,07,09,03,40,13.40
2018,07,09,03,41,13.40
2018,07,09,03,42,13.40
2018,07,09,03,43,13.40
2018,07,09,03,44,13.40
2018,07,09,03,45,13.40
2018,07,09,03,46,13.50
2018,07,09,03,47,13.50
2018,07,09,03,48,13.50
2018,07,09,03,49,13.50
2018,07,09,03,50,13.50
2018,07,09,03,51,13.50
2018,07,09,03,52,13.50
2018,07,09,03,53,13.50
2018,07,09,03,54,13.50
2018,07,09,03,55,13.50
2018,07,09,03,56,13.50
2018,07,09,03,57,13.50
2018,07,09,03,58,13.50
2018,07,09,03,59,13.50
2018,07,09,04,00,13.50
2018,07,09,04,01,13.40
2018,07,09,04,02,13.40
2018,07,09,04,03,13.40
2018,07,09,04,04,13.40
2018,07,09,04,05,13.40
2018,07,09,04,06,13.30
2018,07,09,04,07,13.30
2018,07,09,04,08,13.30
2018,07,09,04,09,13.30
2018,07,09,04,10,13.30
2018,07,09,04,11,13.20
2018,07,09,04,12,13.20
2018,07,09,04,13,13.20
2018,07,09,04,14,13.20
2018,07,09,04,15,13.10
2018,07,09,04,16,13.10
2018,07,09,04,17,13.10
2018,07,09,04,18,13.10
2018,07,09,04,19,13.10
2018,07,09,04,20,13.10
2018,07,09,04,21,13.10
2018,07,09,04,22,13.10
2018,07,09,04,23,13.10
2018,07,09,04,24,13.00
2018,07,09,04,25,13.00
2018,07,09,04,26,13.00
2018,07,09,04,27,13.00
2018,07,09,04,28,13.00
2018,07,09,04,29,12.90
2018,07,09,04,30,12.90
2018,07,09,04,31,12.90
2018,07,09,04,32,12.90
2018,07,09,04,33,12.90
2018,07,09,04,34,12.90
2018,07,09,04,35,12.90
2018,07,09,04,36,12.80
2018,07,09,04,37,12.80
2018,07,09,04,38,12.80
2018,07,09,04,39,12.80
2018,07,09,04,40,12.80
2018,07,09,04,41,12.70
2018,07,09,04,42,12.70
2018,07,09,04,43,12.70
2018,07,09,04,44,12.70
2018,07,09,04,45,12.70
2018,07,09,04,46,12.60
2018,07,09,04,47,12.60
2018,07,09,04,48,12.60
2018,07,09,04,49,12.60
2018,07,09,04,50,12.60
2018,07,09,04,51,12.50
2018,07,09,04,52,12.50
2018,07,09,04,53,12.40
2018,07,09,04,54,12.40
2018,07,09,04,55,12.40
2018,07,09,04,56,12.40
2018,07,09,04,57,12.40
2018,07,09,04,58,12.30
2018,07,09,04,59,12.30
2018,07,09,05,00,12.30
2018,07,09,05,01,12.30
2018,07,09,05,02,12.30
2018,07,09,05,03,12.30
2018,07,09,05,04,12.30
2018,07,09,05,05,12.30
2018,07,09,05,06,12.20
2018,07,09,05,07,12.20
2018,07,09,05,08,12.20
2018,07,09,05,09,12.20
2018,07,09,05,10,12.20
2018,07,09,05,11,12.20
2018,07,09,05,12,12.10
2018,07,09,05,13,12.10
2018,07,09,05,14,12.10
2018,07,09,05,15,12.10
2018,07,09,05,16,12.00
2018,07,09,05,17,12.00
2018,07,09,05,18,12.00
2018,07,09,05,19,12.00
2018,07,09,05,20,12.00
2018,07,09,05,21,12.00
2018,07,09,05,22,12.00
2018,07,09,05,23,11.90
2018,07,09,05,24,11.90
2018,07,09,05,25,11.90
2018,07,09,05,26,11.90
2018,07,09,05,27,11.90
2018,07,09,05,28,11.90
2018,07,09,05,29,11.90
2018,07,09,05,30,11.90
2018,07,09,05,31,11.90
2018,07,09,05,32,11.80
2018,07,09,05,33,11.80
2018,07,09,05,34,11.80
2018,07,09,05,35,11.80
2018,07,09,05,36,11.80
2018,07,09,05,37,11.80
2018,07,09,05,38,11.80
2018,07,09,05,39,11.80
2018,07,09,05,40,11.70
2018,07,09,05,41,11.70
2018,07,09,05,42,11.70
2018,07,09,05,43,11.70
2018,07,09,05,44,11.70
2018,07,09,05,45,11.70
2018,07,09,05,46,11.70
2018,07,09,05,47,11.70
2018,07,09,05,48,11.70
2018,07,09,05,49,11.70
2018,07,09,05,50,11.70
2018,07,09,05,51,11.70
2018,07,09,05,52,11.70
2018,07,09,05,53,11.70
2018,07,09,05,54,11.70
2018,07,09,05,55,11.70
2018,07,09,05,56,11.70
2018,07,09,05,57,11.70
2018,07,09,05,58,11.80
2018,07,09,05,59,11.80
2018,07,09,06,00,11.80
2018,07,09,06,01,11.80
2018,07,09,06,02,11.80
2018,07,09,06,03,11.90
2018,07,09,06,04,11.90
2018,07,09,06,05,11.90
2018,07,09,06,06,11.90
2018,07,09,06,07,11.90
2018,07,09,06,08,11.90
2018,07,09,06,09,11.90
2018,07,09,06,10,11.90
2018,07,09,06,11,11.90
2018,07,09,06,12,11.90
2018,07,09,06,13,11.90
2018,07,09,06,14,11.90
2018,07,09,06,15,11.90
2018,07,09,06,16,11.90
2018,07,09,06,17,11.90
2018,07,09,06,18,11.80
2018,07,09,06,19,11.80
2018,07,09,06,20,11.80
2018,07,09,06,21,11.80
2018,07,09,06,22,11.80
2018,07,09,06,23,11.70
2018,07,09,06,24,11.70
2018,07,09,06,25,11.70
2018,07,09,06,26,11.70
2018,07,09,06,27,11.70
2018,07,09,06,28,11.70
2018,07,09,06,29,11.70
2018,07,09,06,30,11.70
2018,07,09,06,31,11.60
2018,07,09,06,32,11.60
2018,07,09,06,33,11.60
2018,07,09,06,34,11.60
2018,07,09,06,35,11.60
2018,07,09,06,36,11.60
2018,07,09,06,37,11.60
2018,07,09,06,38,11.60
2018,07,09,06,39,11.50
2018,07,09,06,40,11.50
2018,07,09,06,41,11.50
2018,07,09,06,42,11.50
2018,07,09,06,43,11.50
2018,07,09,06,44,11.50
2018,07,09,06,45,11.50
2018,07,09,06,46,11.50
2018,07,09,06,47,11.50
2018,07,09,06,48,11.50
2018,07,09,06,49,11.50
2018,07,09,06,50,11.50
2018,07,09,06,51,11.50
2018,07,09,06,52,11.50
2018,07,09,06,53,11.50
2018,07,09,06,54,11.50
2018,07,09,06,55,11.50
2018,07,09,06,56,11.50
2018,07,09,06,57,11.50
2018,07,09,06,58,11.50
2018,07,09,06,59,11.60
2018,07,09,07,00,11.60
2018,07,09,07,01,11.60
2018,07,09,07,02,11.60
2018,07,09,07,03,11.60
2018,07,09,07,04,11.60
2018,07,09,07,05,11.60
2018,07,09,07,06,11.60
2018,07,09,07,07,11.60
2018,07,09,07,08,11.60
2018,07,09,07,09,11.60
2018,07,09,07,10,11.60
2018,07,09,07,11,11.60
2018,07,09,07,12,11.60
2018,07,09,07,13,11.60
2018,07,09,07,14,11.60
2018,07,09,07,15,11.60
2018,07,09,07,16,11.60
2018,07,09,07,17,11.60
2018,07,09,07,18,11.60
2018,07,09,07,19,11.60
2018,07,09,07,20,11.60
2018,07,09,07,21,11.60
2018,07,09,07,22,11.50
2018,07,09,07,23,11.50
2018,07,09,07,24,11.50
2018,07,09,07,25,11.50
2018,07,09,07,26,11.50
2018,07,09,07,27,11.50
2018,07,09,07,28,11.50
2018,07,09,07,29,11.50
2018,07,09,07,30,11.50
2018,07,09,07,31,11.50
2018,07,09,07,32,11.60
2018,07,09,07,33,11.60
2018,07,09,07,34,11.60
2018,07,09,07,35,11.60
2018,07,09,07,36,11.60
2018,07,09,07,37,11.60
2018,07,09,07,38,11.60
2018,07,09,07,39,11.60
2018,07,09,07,40,11.70
2018,07,09,07,41,11.70
2018,07,09,07,42,11.70
2018,07,09,07,43,11.70
2018,07,09,07,44,11.70
2018,07,09,07,45,11.70
2018,07,09,07,46,11.70
2018,07,09,07,47,11.70
2018,07,09,07,48,11.70
2018,07,09,07,49,11.70
2018,07,09,07,50,11.70
2018,07,09,07,51,11.70
2018,07,09,07,52,11.70
2018,07,09,07,53,11.70
2018,07,09,07,54,11.70
2018,07,09,07,55,11.70
2018,07,09,07,56,11.70
2018,07,09,07,57,11.70
2018,07,09,07,58,11.70
2018,07,09,07,59,11.70
2018,07,09,08,00,11.70
2018,07,09,08,01,11.70
2018,07,09,08,02,11.70
2018,07,09,08,03,11.70
2018,07,09,08,04,11.70
2018,07,09,08,05,11.70
2018,07,09,08,06,11.70
2018,07,09,08,07,11.70
2018,07,09,08,08,11.70
2018,07,09,08,09,11.70
2018,07,09,08,10,11.70
2018,07,09,08,11,11.70
2018,07,09,08,12,11.70
2018,07,09,08,13,11.80
2018,07,09,08,14,11.80
2018,07,09,08,15,11.80
2018,07,09,08,16,11.80
2018,07,09,08,17,11.80
2018,07,09,08,18,11.80
2018,07,09,08,19,11.80
2018,07,09,08,20,11.80
2018,07,09,08,21,11.80
2018,07,09,08,22,11.80
2018,07,09,08,23,11.90
2018,07,09,08,24,11.90
2018,07,09,08,25,11.90
2018,07,09,08,26,11.90
2018,07,09,08,27,11.90
2018,07,09,08,28,12.00
2018,07,09,08,29,12.00
2018,07,09,08,30,12.00
2018,07,09,08,31,12.10
2018,07,09,08,32,12.10
2018,07,09,08,33,12.10
2018,07,09,08,34,12.20
2018,07,09,08,35,12.20
2018,07,09,08,36,12.20
2018,07,09,08,37,12.30
2018,07,09,08,38,12.30
2018,07,09,08,39,12.30
2018,07,09,08,40,12.30
2018,07,09,08,41,12.30
2018,07,09,08,42,12.40
2018,07,09,08,43,12.40
2018,07,09,08,44,12.40
2018,07,09,08,45,12.40
2018,07,09,08,46,12.40
2018,07,09,08,47,12.40
2018,07,09,08,48,12.40
2018,07,09,08,49,12.50
2018,07,09,08,50,12.50
2018,07,09,08,51,12.50
2018,07,09,08,52,12.50
2018,07,09,08,53,12.50
2018,07,09,08,54,12.50
2018,07,09,08,55,12.50
2018,07,09,08,56,12.50
2018,07,09,08,57,12.50
2018,07,09,08,58,12.60
2018,07,09,08,59,12.60
2018,07,09,09,00,12.60
2018,07,09,09,01,12.60
2018,07,09,09,02,12.70
2018,07,09,09,03,12.70
2018,07,09,09,04,12.70
2018,07,09,09,05,12.70
2018,07,09,09,06,12.70
2018,07,09,09,07,12.70
2018,07,09,09,08,12.70
2018,07,09,09,09,12.80
2018,07,09,09,10,12.80
2018,07,09,09,11,12.80
2018,07,09,09,12,12.80
2018,07,09,09,13,12.80
2018,07,09,09,14,12.80
2018,07,09,09,15,12.80
2018,07,09,09,16,12.90
2018,07,09,09,17,12.90
2018,07,09,09,18,12.90
2018,07,09,09,19,12.90
2018,07,09,09,20,12.90
2018,07,09,09,21,13.00
2018,07,09,09,22,13.00
2018,07,09,09,23,13.00
2018,07,09,09,24,13.00
2018,07,09,09,25,13.00
2018,07,09,09,26,13.00
2018,07,09,09,27,13.10
2018,07,09,09,28,13.10
2018,07,09,09,29,13.10
2018,07,09,09,30,13.10
2018,07,09,09,31,13.10
2018,07,09,09,32,13.10
2018,07,09,09,33,13.20
2018,07,09,09,34,13.20
2018,07,09,09,35,13.20
2018,07,09,09,36,13.20
2018,07,09,09,37,13.20
2018,07,09,09,38,13.30
2018,07,09,09,39,13.30
2018,07,09,09,40,13.30
2018,07,09,09,41,13.30
2018,07,09,09,42,13.30
2018,07,09,09,43,13.30
2018,07,09,09,44,13.30
2018,07,09,09,45,13.30
2018,07,09,09,46,13.30
2018,07,09,09,47,13.40
2018,07,09,09,48,13.40
2018,07,09,09,49,13.40
2018,07,09,09,50,13.40
2018,07,09,09,51,13.40
2018,07,09,09,52,13.50
2018,07,09,09,53,13.50
2018,07,09,09,54,13.60
2018,07,09,09,55,13.60
2018,07,09,09,56,13.60
2018,07,09,09,57,13.60
2018,07,09,09,58,13.60
2018,07,09,09,59,13.60
2018,07,09,10,00,13.60
2018,07,09,10,01,13.60
2018,07,09,10,02,13.60
2018,07,09,10,03,13.60
2018,07,09,10,04,13.60
2018,07,09,10,05,13.60
2018,07,09,10,06,13.60
2018,07,09,10,07,13.60
2018,07,09,10,08,13.70
2018,07,09,10,09,13.60
2018,07,09,10,10,13.60
2018,07,09,10,11,13.60
2018,07,09,10,12,13.60
2018,07,09,10,13,13.60
2018,07,09,10,14,13.60
2018,07,09,10,15,13.60
2018,07,09,10,16,13.60
2018,07,09,10,17,13.60
2018,07,09,10,18,13.60
2018,07,09,10,19,13.60
2018,07,09,10,20,13.70
2018,07,09,10,21,13.70
2018,07,09,10,22,13.70
2018,07,09,10,23,13.70
2018,07,09,10,24,13.80
2018,07,09,10,25,13.80
2018,07,09,10,26,13.80
2018,07,09,10,27,13.80
2018,07,09,10,28,13.90
2018,07,09,10,29,13.90
2018,07,09,10,30,14.00
2018,07,09,10,31,14.00
2018,07,09,10,32,14.00
2018,07,09,10,33,14.10
2018,07,09,10,34,14.10
2018,07,09,10,35,14.20
2018,07,09,10,36,14.20
2018,07,09,10,37,14.20
2018,07,09,10,38,14.20
2018,07,09,10,39,14.20
2018,07,09,10,40,14.20
2018,07,09,10,41,14.30
2018,07,09,10,42,14.30
2018,07,09,10,43,14.30
2018,07,09,10,44,14.30
2018,07,09,10,45,14.30
2018,07,09,10,46,14.30
2018,07,09,10,47,14.30
2018,07,09,10,48,14.30
2018,07,09,10,49,14.40
2018,07,09,10,50,14.40
2018,07,09,10,51,14.40
2018,07,09,10,52,14.40
2018,07,09,10,53,14.50
2018,07,09,10,54,14.50
2018,07,09,10,55,14.60
2018,07,09,10,56,14.60
2018,07,09,10,57,14.70
2018,07,09,10,58,14.70
2018,07,09,10,59,14.70
2018,07,09,11,00,14.80
2018,07,09,11,01,14.80
2018,07,09,11,02,14.90
2018,07,09,11,03,14.90
2018,07,09,11,04,15.00
2018,07,09,11,05,15.00
2018,07,09,11,06,15.10
2018,07,09,11,07,15.10
2018,07,09,11,08,15.20
2018,07,09,11,09,15.20
2018,07,09,11,10,15.20
2018,07,09,11,11,15.30
2018,07,09,11,12,15.30
2018,07,09,11,13,15.30
2018,07,09,11,14,15.30
2018,07,09,11,15,15.40
2018,07,09,11,16,15.40
2018,07,09,11,17,15.50
2018,07,09,11,18,15.50
2018,07,09,11,19,15.60
2018,07,09,11,20,15.60
2018,07,09,11,21,15.70
2018,07,09,11,22,15.70
2018,07,09,11,23,15.70
2018,07,09,11,24,15.70
2018,07,09,11,25,15.70
2018,07,09,11,26,15.70
2018,07,09,11,27,15.80
2018,07,09,11,28,15.80
2018,07,09,11,29,15.80
2018,07,09,11,30,15.80
2018,07,09,11,31,15.80
2018,07,09,11,32,15.80
2018,07,09,11,33,15.80
2018,07,09,11,34,15.80
2018,07,09,11,35,15.80
2018,07,09,11,36,15.90
2018,07,09,11,37,15.90
2018,07,09,11,38,16.00
2018,07,09,11,39,16.00
2018,07,09,11,40,16.10
2018,07,09,11,41,16.10
2018,07,09,11,42,16.10
2018,07,09,11,43,16.10
2018,07,09,11,44,16.20
2018,07,09,11,45,16.20
2018,07,09,11,46,16.20
2018,07,09,11,47,16.30
2018,07,09,11,48,16.30
2018,07,09,11,49,16.40
2018,07,09,11,50,16.40
2018,07,09,11,51,16.40
2018,07,09,11,52,16.50
2018,07,09,11,53,16.50
2018,07,09,11,54,16.50
2018,07,09,11,55,16.50
2018,07,09,11,56,16.50
2018,07,09,11,57,16.50
2018,07,09,11,58,16.60
2018,07,09,11,59,16.60
2018,07,09,12,00,16.60
2018,07,09,12,01,16.60
2018,07,09,12,02,16.60
2018,07,09,12,03,16.60
2018,07,09,12,04,16.70
2018,07,09,12,05,16.70
2018,07,09,12,06,16.70
2018,07,09,12,07,16.70
2018,07,09,12,08,16.70
2018,07,09,12,09,16.70
2018,07,09,12,10,16.70
2018,07,09,12,11,16.70
2018,07,09,12,12,16.70
2018,07,09,12,13,16.70
2018,07,09,12,14,16.70
2018,07,09,12,15,16.70
2018,07,09,12,16,16.70
2018,07,09,12,17,16.70
2018,07,09,12,18,16.70
2018,07,09,12,19,16.80
2018,07,09,12,20,16.80
2018,07,09,12,21,16.80
2018,07,09,12,22,16.80
2018,07,09,12,23,16.80
2018,07,09,12,24,16.80
2018,07,09,12,25,16.80
2018,07,09,12,26,16.80
2018,07,09,12,27,16.80
2018,07,09,12,28,16.80
2018,07,09,12,29,16.90
2018,07,09,12,30,16.90
2018,07,09,12,31,16.90
2018,07,09,12,32,16.90
2018,07,09,12,33,17.00
2018,07,09,12,34,17.00
2018,07,09,12,35,17.00
2018,07,09,12,36,17.10
2018,07,09,12,37,17.10
2018,07,09,12,38,17.10
2018,07,09,12,39,17.10
2018,07,09,12,40,17.10
2018,07,09,12,41,17.20
2018,07,09,12,42,17.20
2018,07,09,12,43,17.20
2018,07,09,12,44,17.30
2018,07,09,12,45,17.30
2018,07,09,12,46,17.30
2018,07,09,12,47,17.40
2018,07,09,12,48,17.40
2018,07,09,12,49,17.50
2018,07,09,12,50,17.50
2018,07,09,12,51,17.50
2018,07,09,12,52,17.50
2018,07,09,12,53,17.50
2018,07,09,12,54,17.50
2018,07,09,12,55,17.50
2018,07,09,12,56,17.60
2018,07,09,12,57,17.60
2018,07,09,12,58,17.60
2018,07,09,12,59,17.60
2018,07,09,13,00,17.60
2018,07,09,13,01,17.60
2018,07,09,13,02,17.60
2018,07,09,13,03,17.60
2018,07,09,13,04,17.60
2018,07,09,13,05,17.70
2018,07,09,13,06,17.70
2018,07,09,13,07,17.80
2018,07,09,13,08,17.80
2018,07,09,13,09,17.90
2018,07,09,13,10,18.00
2018,07,09,13,11,18.00
2018,07,09,13,12,18.10
2018,07,09,13,13,18.10
2018,07,09,13,14,18.20
2018,07,09,13,15,18.20
2018,07,09,13,16,18.30
2018,07,09,13,17,18.30
2018,07,09,13,18,18.40
2018,07,09,13,19,18.40
2018,07,09,13,20,18.50
2018,07,09,13,21,18.60
2018,07,09,13,22,18.60
2018,07,09,13,23,18.60
2018,07,09,13,24,18.60
2018,07,09,13,25,18.60
2018,07,09,13,26,18.60
2018,07,09,13,27,18.60
2018,07,09,13,28,18.60
2018,07,09,13,29,18.60
2018,07,09,13,30,18.60
2018,07,09,13,31,18.60
2018,07,09,13,32,18.60
2018,07,09,13,33,18.60
2018,07,09,13,34,18.60
2018,07,09,13,35,18.60
2018,07,09,13,36,18.60
2018,07,09,13,37,18.60
2018,07,09,13,38,18.60
2018,07,09,13,39,18.60
2018,07,09,13,40,18.60
2018,07,09,13,41,18.60
2018,07,09,13,42,18.60
2018,07,09,13,43,18.60
2018,07,09,13,44,18.60
2018,07,09,13,45,18.70
2018,07,09,13,46,18.70
2018,07,09,13,47,18.70
2018,07,09,13,48,18.70
2018,07,09,13,49,18.80
2018,07,09,13,50,18.80
2018,07,09,13,51,18.80
2018,07,09,13,52,18.80
2018,07,09,13,53,18.90
2018,07,09,13,54,18.90
2018,07,09,13,55,19.00
2018,07,09,13,56,19.10
2018,07,09,13,57,19.10
2018,07,09,13,58,19.20
2018,07,09,13,59,19.20
2018,07,09,14,00,19.30
2018,07,09,14,01,19.30
2018,07,09,14,02,19.40
2018,07,09,14,03,19.40
2018,07,09,14,04,19.40
2018,07,09,14,05,19.40
2018,07,09,14,06,19.50
2018,07,09,14,07,19.50
2018,07,09,14,08,19.60
2018,07,09,14,09,19.60
2018,07,09,14,10,19.70
2018,07,09,14,11,19.80
2018,07,09,14,12,19.80
2018,07,09,14,13,19.90
2018,07,09,14,14,20.00
2018,07,09,14,15,20.10
2018,07,09,14,16,20.20
2018,07,09,14,17,20.30
2018,07,09,14,18,20.40
2018,07,09,14,19,20.50
2018,07,09,14,20,20.50
2018,07,09,14,21,20.60
2018,07,09,14,22,20.70
2018,07,09,14,23,20.70
2018,07,09,14,24,20.70
2018,07,09,14,25,20.80
2018,07,09,14,26,20.80
2018,07,09,14,27,20.80
2018,07,09,14,28,20.70
2018,07,09,14,29,20.70
2018,07,09,14,30,20.70
2018,07,09,14,31,20.70
2018,07,09,14,32,20.70
2018,07,09,14,33,20.70
2018,07,09,14,34,20.70
2018,07,09,14,35,20.70
2018,07,09,14,36,20.80
2018,07,09,14,37,20.80
2018,07,09,14,38,20.80
2018,07,09,14,39,20.80
2018,07,09,14,40,20.80
2018,07,09,14,41,20.80
2018,07,09,14,42,20.80
2018,07,09,14,43,20.80
2018,07,09,14,44,20.70
2018,07,09,14,45,20.70
2018,07,09,14,46,20.70
2018,07,09,14,47,20.80
2018,07,09,14,48,20.80
2018,07,09,14,49,20.90
2018,07,09,14,50,21.00
2018,07,09,14,51,21.00
2018,07,09,14,52,20.90
2018,07,09,14,53,20.90
2018,07,09,14,54,20.90
2018,07,09,14,55,20.80
2018,07,09,14,56,20.80
2018,07,09,14,57,20.80
2018,07,09,14,58,20.80
2018,07,09,14,59,20.90
2018,07,09,15,00,20.90
2018,07,09,15,01,20.90
2018,07,09,15,02,21.00
2018,07,09,15,03,21.00
2018,07,09,15,04,21.10
2018,07,09,15,05,21.10
2018,07,09,15,06,21.10
2018,07,09,15,07,21.10
2018,07,09,15,08,21.20
2018,07,09,15,09,21.20
2018,07,09,15,10,21.20
2018,07,09,15,11,21.20
2018,07,09,15,12,21.20
2018,07,09,15,13,21.20
2018,07,09,15,14,21.20
2018,07,09,15,15,21.30
2018,07,09,15,16,21.30
2018,07,09,15,17,21.30
2018,07,09,15,18,21.30
2018,07,09,15,19,21.30
2018,07,09,15,20,21.30
2018,07,09,15,21,21.40
2018,07,09,15,22,21.40
2018,07,09,15,23,21.50
2018,07,09,15,24,21.50
2018,07,09,15,25,21.60
2018,07,09,15,26,21.70
2018,07,09,15,27,21.80
2018,07,09,15,28,21.80
2018,07,09,15,29,21.80
2018,07,09,15,30,21.80
2018,07,09,15,31,21.90
2018,07,09,15,32,21.90
2018,07,09,15,33,21.90
2018,07,09,15,34,21.90
2018,07,09,15,35,21.90
2018,07,09,15,36,21.90
2018,07,09,15,37,21.90
2018,07,09,15,38,21.90
2018,07,09,15,39,21.90
2018,07,09,15,40,21.90
2018,07,09,15,41,21.90
2018,07,09,15,42,21.90
2018,07,09,15,43,21.90
2018,07,09,15,44,21.90
2018,07,09,15,45,21.90
2018,07,09,15,46,21.90
2018,07,09,15,47,21.90
2018,07,09,15,48,21.90
2018,07,09,15,49,21.80
2018,07,09,15,50,21.80
2018,07,09,15,51,21.80
2018,07,09,15,52,21.80
2018,07,09,15,53,21.80
2018,07,09,15,54,21.70
2018,07,09,15,55,21.70
2018,07,09,15,56,21.70
2018,07,09,15,57,21.70
2018,07,09,15,58,21.70
2018,07,09,15,59,21.60
2018,07,09,16,00,21.60
2018,07,09,16,01,21.50
2018,07,09,16,02,21.40
2018,07,09,16,03,21.40
2018,07,09,16,04,21.30
2018,07,09,16,05,21.30
2018,07,09,16,06,21.30
2018,07,09,16,07,21.30
2018,07,09,16,08,21.30
2018,07,09,16,09,21.30
2018,07,09,16,10,21.30
2018,07,09,16,11,21.30
2018,07,09,16,12,21.30
2018,07,09,16,13,21.30
2018,07,09,16,14,21.40
2018,07,09,16,15,21.50
2018,07,09,16,16,21.50
2018,07,09,16,17,21.60
2018,07,09,16,18,21.60
2018,07,09,16,19,21.70
2018,07,09,16,20,21.70
2018,07,09,16,21,21.80
2018,07,09,16,22,21.80
2018,07,09,16,23,21.80
2018,07,09,16,24,21.80
2018,07,09,16,25,21.80
2018,07,09,16,26,21.80
2018,07,09,16,27,21.80
2018,07,09,16,28,21.80
2018,07,09,16,29,21.80
2018,07,09,16,30,21.80
2018,07,09,16,31,21.70
2018,07,09,16,32,21.70
2018,07,09,16,33,21.70
2018,07,09,16,34,21.80
2018,07,09,16,35,21.80
2018,07,09,16,36,21.80
2018,07,09,16,37,21.90
2018,07,09,16,38,22.00
2018,07,09,16,39,22.10
2018,07,09,16,40,22.20
2018,07,09,16,41,22.30
2018,07,09,16,42,22.30
2018,07,09,16,43,22.40
2018,07,09,16,44,22.40
2018,07,09,16,45,22.50
2018,07,09,16,46,22.50
2018,07,09,16,47,22.60
2018,07,09,16,48,22.60
2018,07,09,16,49,22.60
2018,07,09,16,50,22.70
2018,07,09,16,51,22.70
2018,07,09,16,52,22.70
2018,07,09,16,53,22.80
2018,07,09,16,54,22.80
2018,07,09,16,55,22.80
2018,07,09,16,56,22.80
2018,07,09,16,57,22.80
2018,07,09,16,58,22.80
2018,07,09,16,59,22.90
2018,07,09,17,00,22.90
2018,07,09,17,01,22.90
2018,07,09,17,02,22.90
2018,07,09,17,03,23.00
2018,07,09,17,04,23.00
2018,07,09,17,05,23.00
2018,07,09,17,06,23.00
2018,07,09,17,07,23.00
2018,07,09,17,08,23.00
2018,07,09,17,09,23.00
2018,07,09,17,10,23.00
2018,07,09,17,11,23.00
2018,07,09,17,12,23.00
2018,07,09,17,13,23.00
2018,07,09,17,14,22.90
2018,07,09,17,15,22.90
2018,07,09,17,16,22.80
2018,07,09,17,17,22.80
2018,07,09,17,18,22.70
2018,07,09,17,19,22.60